Weather History for Big Rapids, MI

Change the Weather History Date:

Sunday, December 30, 2012

  Actual Average Record
Temperature  
Mean Temperature 25 °F -  
Max Temperature 28 °F 29 °F 48 °F (2002)
Min Temperature 22 °F 14 °F -16 °F (1976)
Degree Days  
Heating Degree Days 40    
Moisture  
Dew Point 20 °F    
Average Humidity 77    
Maximum Humidity 94    
Minimum Humidity 66    
Precipitation  
Precipitation 0.00 in - - ()
Sea Level Pressure  
Sea Level Pressure 30.13 in    
Wind  
Wind Speed 6 mph (WSW)    
Max Wind Speed 13 mph    
Max Gust Speed 20 mph    
Visibility 10 miles    
Events Snow    
Averages and records for this station are not official NWS values.
T = Trace of Precipitation, MM = Missing Value Source: NWS Daily Summary

Daily Weather History Graph

Daily Weather History Graph

Search for Another Location

Airport:

Trip Planner

Search our weather history database for the weather conditions in past years. The results will help you decide how hot, cold, wet, or windy it might be!

Date:

Astronomy

Dec. 30, 2012 Rise Set
Actual Time 8:15 AM EST 5:14 PM EST
Civil Twilight 7:42 AM EST 5:46 PM EST
Nautical Twilight 7:06 AM EST 6:23 PM EST
Astronomical Twilight 6:31 AM EST 6:58 PM EST
Moon 7:49 PM EST (12/30) 9:19 AM EST (12/30)
Length of Visible Light 10h 04m
Length of Day
8h 58m
Waning Gibbous, 95% of the Moon is Illuminated
Dec 30
Waning Gibbous
Jan 4
Last Quarter
Jan 11
New
Jan 18
First Quarter
Jan 26
Full

Hourly Weather History & Observations

Time (EST) Temp. Windchill Dew Point Humidity Pressure Visibility Wind Dir Wind Speed Gust Speed Precip Events Conditions
12:15 AM 22.5 °F - 20.8 °F 93% 30.03 in 7.0 mi Calm Calm - N/A Snow Light Snow
12:34 AM 24.8 °F - 23.4 °F 94% 30.03 in 10.0 mi Calm Calm - N/A   Overcast
12:54 AM 26.4 °F 22.4 °F 24.8 °F 94% 30.03 in 10.0 mi West 3.5 mph - N/A   Overcast
1:15 AM 27.1 °F 21.8 °F 25.7 °F 94% 30.04 in 10.0 mi West 4.6 mph - N/A Snow Light Snow
1:34 AM 27.9 °F 20.6 °F 25.7 °F 92% 30.04 in 10.0 mi West 6.9 mph - N/A Snow Light Snow
1:54 AM 28.2 °F 18.3 °F 25.5 °F 90% 30.05 in 10.0 mi WNW 11.5 mph - N/A   Overcast
2:14 AM 28.2 °F 20.2 °F 25.3 °F 89% 30.06 in 10.0 mi West 8.1 mph - N/A   Overcast
2:34 AM 28.0 °F 20.0 °F 24.8 °F 88% 30.07 in 10.0 mi West 8.1 mph - N/A   Overcast
2:54 AM 28.4 °F 21.2 °F 24.6 °F 86% 30.08 in 10.0 mi West 6.9 mph - N/A   Overcast
3:14 AM 28.4 °F 20.4 °F 22.6 °F 79% 30.09 in 10.0 mi WNW 8.1 mph - N/A   Overcast
3:34 AM 28.2 °F 19.5 °F 21.4 °F 76% 30.09 in 10.0 mi West 9.2 mph - N/A   Overcast
3:55 AM 27.1 °F 16.9 °F 20.1 °F 75% 30.10 in 10.0 mi WNW 11.5 mph 19.6 mph N/A   Overcast
4:14 AM 26.4 °F 18.9 °F 19.0 °F 74% 30.10 in 10.0 mi West 6.9 mph - N/A   Overcast
4:34 AM 26.6 °F 17.5 °F 18.9 °F 73% 30.11 in 10.0 mi West 9.2 mph - N/A   Overcast
4:55 AM 26.2 °F 17.1 °F 19.0 °F 74% 30.12 in 10.0 mi West 9.2 mph - N/A   Overcast
5:14 AM 26.1 °F 16.2 °F 19.0 °F 75% 30.12 in 10.0 mi West 10.4 mph - N/A   Overcast
5:34 AM 25.7 °F 14.6 °F 18.9 °F 75% 30.12 in 10.0 mi West 12.7 mph 17.3 mph N/A   Overcast
5:55 AM 25.7 °F 20.1 °F 19.2 °F 76% 30.13 in 10.0 mi WSW 4.6 mph - N/A   Overcast
6:14 AM 25.7 °F 18.0 °F 19.4 °F 77% 30.14 in 10.0 mi WSW 6.9 mph - N/A   Overcast
6:34 AM 25.7 °F 19.0 °F 19.4 °F 77% 30.15 in 10.0 mi West 5.8 mph - N/A   Overcast
6:55 AM 25.7 °F 20.1 °F 19.4 °F 77% 30.16 in 10.0 mi West 4.6 mph - N/A   Overcast
7:14 AM 25.7 °F 18.0 °F 19.4 °F 77% 30.16 in 10.0 mi West 6.9 mph - N/A   Overcast
7:34 AM 25.7 °F 21.5 °F 19.4 °F 77% 30.17 in 10.0 mi West 3.5 mph - N/A   Overcast
7:54 AM 25.7 °F 21.5 °F 19.6 °F 78% 30.17 in 10.0 mi West 3.5 mph - N/A   Overcast
8:14 AM 25.7 °F 20.1 °F 19.8 °F 78% 30.16 in 10.0 mi WSW 4.6 mph - N/A   Overcast
8:34 AM 25.7 °F 20.1 °F 19.4 °F 77% 30.17 in 10.0 mi WSW 4.6 mph - N/A   Overcast
8:54 AM 25.9 °F 17.4 °F 19.4 °F 76% 30.17 in 10.0 mi WSW 8.1 mph - N/A   Overcast
9:14 AM 26.2 °F 19.6 °F 19.0 °F 74% 30.18 in 10.0 mi WSW 5.8 mph - N/A   Overcast
9:34 AM 26.2 °F 18.6 °F 19.2 °F 75% 30.18 in 10.0 mi WSW 6.9 mph - N/A   Overcast
9:54 AM 26.4 °F 22.4 °F 18.9 °F 73% 30.18 in 10.0 mi WSW 3.5 mph - N/A   Overcast
10:14 AM 26.4 °F 18.9 °F 19.0 °F 74% 30.18 in 10.0 mi SW 6.9 mph - N/A   Overcast
10:34 AM 26.6 °F 19.1 °F 18.1 °F 70% 30.19 in 10.0 mi West 6.9 mph - N/A   Overcast
10:54 AM 26.8 °F 19.3 °F 18.7 °F 72% 30.20 in 10.0 mi WSW 6.9 mph - N/A   Overcast
11:14 AM 26.6 °F 18.2 °F 18.3 °F 71% 30.20 in 10.0 mi WSW 8.1 mph - N/A   Overcast
11:34 AM 27.0 °F 16.7 °F 18.3 °F 70% 30.19 in 10.0 mi West 11.5 mph 16.1 mph N/A   Overcast
11:54 AM 26.8 °F 18.5 °F 18.5 °F 71% 30.19 in 10.0 mi West 8.1 mph - N/A   Overcast
12:14 PM 26.8 °F 17.7 °F 18.5 °F 71% 30.19 in 10.0 mi WSW 9.2 mph - N/A   Overcast
12:34 PM 27.0 °F 18.0 °F 18.1 °F 69% 30.18 in 10.0 mi WSW 9.2 mph - N/A   Overcast
12:54 PM 27.1 °F 18.9 °F 18.3 °F 69% 30.18 in 10.0 mi WSW 8.1 mph - N/A   Overcast
1:14 PM 27.5 °F 18.0 °F 18.1 °F 68% 30.18 in 10.0 mi WSW 10.4 mph 16.1 mph N/A   Overcast
1:34 PM 27.7 °F 20.4 °F 18.3 °F 68% 30.17 in 10.0 mi WSW 6.9 mph 16.1 mph N/A   Overcast
1:54 PM 28.0 °F 20.0 °F 18.3 °F 67% 30.17 in 10.0 mi WSW 8.1 mph 16.1 mph N/A   Overcast
2:15 PM 28.0 °F 19.3 °F 18.3 °F 67% 30.16 in 10.0 mi West 9.2 mph - N/A   Overcast
2:34 PM 28.8 °F 18.4 °F 18.5 °F 66% 30.16 in 10.0 mi WSW 12.7 mph 19.6 mph N/A   Overcast
2:54 PM 27.5 °F 18.0 °F 18.5 °F 69% 30.16 in 10.0 mi SW 10.4 mph 16.1 mph N/A   Overcast
3:15 PM 27.5 °F 19.3 °F 18.7 °F 69% 30.16 in 10.0 mi WSW 8.1 mph - N/A   Overcast
3:34 PM 27.9 °F 20.6 °F 19.2 °F 70% 30.16 in 10.0 mi WSW 6.9 mph - N/A   Overcast
3:54 PM 27.5 °F 18.0 °F 18.7 °F 69% 30.16 in 10.0 mi WSW 10.4 mph 17.3 mph N/A   Overcast
4:15 PM 27.0 °F 20.5 °F 18.3 °F 70% 30.16 in 10.0 mi WSW 5.8 mph - N/A   Mostly Cloudy
4:34 PM 27.0 °F 21.6 °F 18.5 °F 70% 30.14 in 10.0 mi WSW 4.6 mph - N/A   Mostly Cloudy
4:54 PM 27.0 °F 21.6 °F 19.0 °F 72% 30.14 in 10.0 mi WSW 4.6 mph - N/A   Overcast
5:15 PM 26.6 °F 19.1 °F 19.2 °F 74% 30.14 in 10.0 mi SW 6.9 mph - N/A   Overcast
5:39 PM 26.8 °F 19.3 °F 19.4 °F 74% 30.14 in 10.0 mi SW 6.9 mph - N/A   Overcast
5:59 PM 27.0 °F 18.0 °F 19.4 °F 73% 30.13 in 10.0 mi SW 9.2 mph - N/A   Overcast
6:34 PM 27.0 °F 19.5 °F 19.9 °F 75% 30.13 in 10.0 mi SW 6.9 mph - N/A   Overcast
6:54 PM 27.3 °F 22.0 °F 20.3 °F 75% 30.14 in 10.0 mi SW 4.6 mph - N/A   Overcast
7:14 PM 27.7 °F 22.4 °F 20.7 °F 75% 30.13 in 10.0 mi WSW 4.6 mph - N/A   Overcast
7:34 PM 28.0 °F 22.8 °F 21.2 °F 76% 30.14 in 10.0 mi SW 4.6 mph - N/A   Overcast
7:54 PM 28.0 °F 21.7 °F 21.6 °F 77% 30.14 in 10.0 mi SSW 5.8 mph - N/A   Overcast
8:14 PM 28.0 °F 21.7 °F 21.7 °F 77% 30.13 in 10.0 mi SSW 5.8 mph - N/A   Overcast
8:34 PM 28.0 °F 20.8 °F 21.9 °F 78% 30.13 in 10.0 mi South 6.9 mph - N/A   Overcast
8:54 PM 27.5 °F 19.3 °F 22.1 °F 80% 30.11 in 10.0 mi South 8.1 mph - N/A   Overcast
9:14 PM 27.7 °F 19.6 °F 22.6 °F 81% 30.10 in 7.0 mi South 8.1 mph - N/A   Overcast
9:34 PM 27.9 °F 19.8 °F 22.6 °F 81% 30.09 in 7.0 mi South 8.1 mph - N/A   Overcast
9:54 PM 27.9 °F 20.6 °F 22.3 °F 80% 30.08 in 7.0 mi South 6.9 mph - N/A   Overcast
10:14 PM 27.5 °F 18.6 °F 22.1 °F 80% 30.07 in 7.0 mi South 9.2 mph - N/A   Overcast
10:34 PM 27.9 °F 20.6 °F 22.1 °F 79% 30.06 in 7.0 mi South 6.9 mph - N/A   Overcast
10:54 PM 27.5 °F 22.2 °F 22.1 °F 80% 30.06 in 7.0 mi South 4.6 mph - N/A   Mostly Cloudy
11:14 PM 27.3 °F 19.9 °F 22.1 °F 81% 30.06 in 7.0 mi South 6.9 mph - N/A   Overcast
11:35 PM 26.6 °F 18.2 °F 21.4 °F 81% 30.05 in 7.0 mi South 8.1 mph - N/A   Overcast
11:54 PM 26.6 °F 18.2 °F 21.6 °F 81% 30.04 in 7.0 mi South 8.1 mph - N/A   Overcast